This is the latest recevied weather packets stored in our database for station/object SP6FIG-13. If no packets are shown the sender has not sent any weather packets the latest 10 day(s).
| Time | Temp. | Humidity | Pressure | Rain* | Wind** | Luminosity | Snow |
|---|---|---|---|---|---|---|---|
| 1776931040 | 21.11° C | 41% | 1020.9 hPa | - | - | - | - |
| 1776930740 | 21.11° C | 39% | 1020.9 hPa | - | - | - | - |
| 1776930439 | 21.11° C | 38% | 1021 hPa | - | - | - | - |
| 1776930139 | 21.11° C | 39% | 1021 hPa | - | - | - | - |
| 1776929840 | 21.11° C | 39% | 1021 hPa | - | - | - | - |
| 1776929539 | 21.11° C | 39% | 1021.4 hPa | - | - | - | - |
| 1776929239 | 21.11° C | 40% | 1021.1 hPa | - | - | - | - |
| 1776928939 | 21.11° C | 40% | 1021 hPa | - | - | - | - |
| 1776928640 | 21.11° C | 41% | 1021 hPa | - | - | - | - |
| 1776928340 | 21.11° C | 42% | 1021.1 hPa | - | - | - | - |
| 1776928040 | 21.11° C | 44% | 1020.7 hPa | - | - | - | - |
| 1776927740 | 20.56° C | 41% | 1021.1 hPa | - | - | - | - |
| 1776927439 | 20.56° C | 42% | 1021 hPa | - | - | - | - |
| 1776927139 | 20.56° C | 42% | 1021.1 hPa | - | - | - | - |
| 1776926839 | 20.56° C | 42% | 1021.3 hPa | - | - | - | - |
| 1776926540 | 20.56° C | 43% | 1021.4 hPa | - | - | - | - |
| 1776926240 | 20.56° C | 43% | 1021.2 hPa | - | - | - | - |
| 1776925939 | 20.56° C | 44% | 1021.4 hPa | - | - | - | - |
| 1776925640 | 20.56° C | 43% | 1021.3 hPa | - | - | - | - |
| 1776925339 | 20.56° C | 45% | 1021 hPa | - | - | - | - |
| 1776925039 | 20.56° C | 45% | 1021.3 hPa | - | - | - | - |
| 1776924739 | 20.56° C | 44% | 1021.4 hPa | - | - | - | - |
| 1776924439 | 20.56° C | 44% | 1021.3 hPa | - | - | - | - |
| 1776924139 | 20.56° C | 43% | 1021.4 hPa | - | - | - | - |
| 1776923839 | 20.56° C | 44% | 1021.5 hPa | - | - | - | - |
* Rain since midnight (hover to see other rain measurements)
** Current wind speed in m/s (hover to see current wind gust speed)